Location: Colorado Springs
(38.8340°N, 104.8210°W)
Time: 11:14:12
(UTC-06:00)

Tiangong 1 - Pass Details

Date: 11 October 2017
Orbit: 292 x 320 km, 42.8° (Epoch: 22 October)

Event Time Altitude Azimuth Distance (km) Brightness Sun altitude
Rises 19:00:50 0° 283° (WNW) 2,046 6.5 -7.5°
Reaches altitude 10° 19:02:56 10° 294° (WNW) 1,210 4.7 -8.0°
Maximum altitude 19:05:26 32° 1° (N) 560 1.9 -8.4°
Enters shadow 19:07:37 12° 65° (ENE) 1,090 2.8 -8.9°
